Weather Roundup
Issued by NWS Chicago, IL

Home | Current Version | Previous Version | Graphics & Text | Print | Product List | Glossary On
Versions: 1 2 3 4 5 6 7 8 9 10 11 12 13 14 15 16 17 18 19 20 21 22 23 24 25 26 27 28 29 30 31 32 33 34 35 36 37 38 39 40 41 42 43 44 45 46 47 48 49 50
000
NZUS59 KLOT 280702
HRRLOT

CHICAGO AREA WEATHER ROUNDUP
NATIONAL WEATHER SERVICE CHICAGO/ROMEOVILLE IL
200 AM CDT SAT MAR 28 2015

NOTE: "FAIR" INDICATES FEW OR NO CLOUDS BELOW 12,000 FEET WITH NO
SIGNIFICANT WEATHER AND/OR OBSTRUCTIONS TO VISIBILITY.

* THESE STATIONS ARE NOT UNDER NWS QUALITY CONTROL. THEY ALSO MAY NOT
  REPORT WEATHER SUCH AS PRECIPITATION OR FOG.

ILZ005-006-012>014-019>023-280800-
NORTHEAST ILLINOIS

CITY           SKY/WX    TMP DP  RH WIND       PRES   REMARKS
OHARE          CLEAR     22  13  68 N5        30.22R WCI  16
MIDWAY         PTCLDY    26  12  55 NW6       30.23R WCI  19
AURORA         CLEAR     17  12  80 CALM      30.23S
LANSING*       CLEAR     25   9  51 N6        30.22R WCI  18
WAUKEGAN       CLEAR     16  13  88 NW5       30.22S WCI   9
DUPAGE AIRPORT CLEAR     18  11  74 CALM      30.22R
WHEELING       CLEAR     21  13  71 NW5       30.24S WCI  15
NORTHERLY IS     N/A     26  12  55 N12         N/A  WCI  16
$$

WIZ051-052-058>065-066-070>072-280800-
SOUTHEAST WISCONSIN

CITY           SKY/WX    TMP DP  RH WIND       PRES   REMARKS
MILWAUKEE      PTCLDY    22  11  62 W5        30.23S WCI  16
KENOSHA*       CLEAR     19  13  77 N5        30.23R WCI  12
RACINE*        PTCLDY    20  12  71 W5        30.24S WCI  13
$$

INZ001>003-010>013-019-020-280800-
NORTHWEST INDIANA

CITY           SKY/WX    TMP DP  RH WIND       PRES   REMARKS
GARY*          CLEAR     27   9  47 N12       30.22S WCI  17
MICHIGAN CITY* NOT AVBL
RENSSELAER*    NOT AVBL
$$

LMZ740>746-280800-
SOUTHERN LAKE MICHIGAN

STATION/POSITION TIME  SKY/WX   TEMP WIND        PRES    VSBY
                                AIR  DIR/SP/G
                 (UTC)          (F)  (DEG/KT/KT) (MB)    (MI)
HARRISON CRIB    0600            26   10/ 16/ 22   N/A
BURNHAM HARBOR   0700            26   10/ 12/ 17   N/A
CALUMET HARBOR   0606            26  350/ 11/ 14 1021.9F
BURNS HARBOR     0600            26   20/ 16/ 21 1023.0F
MICHIGAN CITY    0600            24  360/ 16/ 19   N/A
$$

ABBREVIATIONS USED IN REMARKS
   TC - TEMPERATURE IN CELSIUS
  WCI - WIND CHILL INDEX
   HX - HEAT INDEX
  VSB - VISIBILITY
$$



USA.gov is the U.S. government's official web portal to all federal, state and local government web resources and services.